This demonstration page uses our WeatherBlox Daily Observations layout. Learn more.

Left ArrowRight Arrow

Hourly Observations for June 15, 2017

Temp ( °F °C ) Dew Point ( °F °C ) Humidity (%) Winds ( mph kmh ) Pressure ( in mb ) Visibility ( mi km ) Precip ( " mm )
1:56 am 01:56 Clear 61 16.1 60 15.6 97 97 Calm 29.82 1010 10 16 0.00 0.00
2:56 am 02:56 Clear 59 14.8 58 14.3 97 97 Calm 29.83 1010 10 16 0.00 0.00
3:56 am 03:56 Clear 61 15.9 60 15.4 97 97 Calm 29.80 1009 10 16 0.00 0.00
4:56 am 04:56 Clear 59 14.8 58 14.5 98 98 Calm 29.81 1010 10 16 0.00 0.00
5:36 am 05:36 Clear with Mist and Fog 59 15 57 14 94 94 Calm 29.83 1010 3 5 0.00 0.00
5:46 am 05:46 Clear with Mist and Fog 59 15 59 15 100 100 Calm 29.84 1011 5 8 0.00 0.00
5:56 am 05:56 Sunny with Mist and Fog 61 16 60 15.5 97 97 S 5 7 29.85 1011 6 10 0.00 0.00
6:56 am 06:56 Sunny 63 17.3 62 16.6 96 96 SE 3 6 29.86 1011 10 16 0.00 0.00
7:56 am 07:56 Sunny 68 20.2 64 17.6 85 85 Calm 29.87 1012 10 16 0.00 0.00
8:56 am 08:56 Sunny 75 23.7 67 19.2 76 76 S 3 6 29.87 1011 10 16 0.00 0.00
9:56 am 09:56 Sunny 82 28 66 18.7 57 57 S 9 15 29.87 1012 10 16 0.00 0.00
10:56 am 10:56 Sunny 85 29.5 65 18.6 52 52 S 8 13 29.86 1011 10 16 0.00 0.00
11:56 am 11:56 Sunny 88 31 63 17.3 44 44 S 14 22 29.85 1011 10 16 0.00 0.00
12:56 pm 12:56 Sunny 90 32.1 67 19.7 48 48 S 10 17 29.84 1010 10 16 0.00 0.00
1:56 pm 13:56 Sunny 91 33 66 18.7 43 43 SW 8 13 29.83 1010 10 16 0.00 0.00
2:56 pm 14:56 Sunny 93 34 61 16.3 35 35 SSW 8 13 29.80 1009 10 16 0.00 0.00
3:56 pm 15:56 Sunny 94 34.3 63 17 36 36 WSW 8 13 29.79 1009 10 16 0.00 0.00
4:56 pm 16:56 Sunny 94 34.5 62 16.8 35 35 SSW 3 6 29.77 1008 10 16 0.00 0.00
5:56 pm 17:56 Sunny 94 34.2 63 17 36 36 Calm 29.74 1007 10 16 0.00 0.00
6:09 pm 18:09 Partly Cloudy with Thunderstorms 93 34 61 16 34 34 NW 3 6 29.73 1007 10 16 0.00 0.00
6:40 pm 18:40 Mostly Cloudy 93 34 63 17 36 36 W 6 9 29.72 1007 10 16 0.00 0.00
6:56 pm 18:56 Sunny 91 33 65 18.3 42 42 NW 5 7 29.72 1007 10 16 0.00 0.00
7:56 pm 19:56 Sunny 85 29.3 68 19.9 57 57 NNE 3 6 29.70 1006 10 16 0.00 0.00
8:56 pm 20:56 Sunny 80 26.9 67 19.7 65 65 ESE 9 15 29.70 1006 10 16 0.00 0.00
9:56 pm 21:56 Cloudy 78 25.4 66 18.8 67 67 ESE 13 20 29.76 1008 10 16 0.00 0.00
10:32 pm 22:32 Cloudy with Thunderstorms 75 24 66 19 74 74 Calm 29.76 1008 10 16 0.00 0.00
10:39 pm 22:39 Cloudy with Thunderstorms 75 24 66 19 74 74 E 3 6 29.78 1009 10 16 0.00 0.00
10:56 pm 22:56 Cloudy with Thunderstorms 73 23 67 19.7 82 82 NE 6 9 29.80 1009 10 16 0.00 0.03
11:35 pm 23:35 Partly Cloudy 72 22 66 19 83 83 E 7 11 29.78 1009 10 16 0.00 0.00
11:56 pm 23:56 Mostly Clear 70 21.2 67 19.3 89 89 ESE 10 17 29.78 1009 10 16 0.04 1.02

Powered by AerisWeather